Wetterdaten: Woche 23.05.16 - 29.05.16 (KW21)
Datum Zeit Temp. I. Temp. A. Feuchte I. Feuchte A. Luftdruck Regen Wind Richtung Sonnenschein UV Solar Taupunkt Windchill Windben
23.05.2016 00:00 24,2 C 18,1 C 47 % 68 % 1007,6 hPa 0,0 l/m 2,6 km/h (1 Bft) W-NW 0,00 h 0,0 UV-I 0 W/m 12,1 C 17,9 C 5,4 km/h (1 Bft)
23.05.2016 01:00 24,1 C 16,8 C 48 % 71 % 1007,6 hPa 0,0 l/m 5,4 km/h (1 Bft) N 0,00 h 0,0 UV-I 0 W/m 11,5 C 16,2 C 10,1 km/h (2 Bft)
23.05.2016 02:00 24,2 C 15,1 C 49 % 78 % 1007,4 hPa 0,0 l/m 1,4 km/h (1 Bft) N-NO 0,00 h 0,0 UV-I 0 W/m 11,3 C 15,0 C 2,9 km/h (1 Bft)
23.05.2016 03:00 24,2 C 14,5 C 49 % 81 % 1007,6 hPa 0,0 l/m 0,4 km/h (0 Bft) W 0,00 h 0,0 UV-I 0 W/m 11,3 C 14,5 C 1,6 km/h (1 Bft)
23.05.2016 04:00 24,2 C 13,8 C 49 % 84 % 1007,9 hPa 0,0 l/m 0,0 km/h (0 Bft) N 0,00 h 0,0 UV-I 0 W/m 11,2 C 13,8 C 0,0 km/h (0 Bft)
23.05.2016 05:00 24,1 C 12,8 C 49 % 88 % 1007,8 hPa 0,0 l/m 0,0 km/h (0 Bft) N 0,00 h 0,0 UV-I 10 W/m 10,8 C 12,8 C 0,0 km/h (0 Bft)
23.05.2016 06:00 24,0 C 13,4 C 49 % 86 % 1007,5 hPa 0,0 l/m 0,0 km/h (0 Bft) N 0,00 h 0,0 UV-I 47 W/m 11,2 C 13,4 C 0,0 km/h (0 Bft)
23.05.2016 07:00 24,1 C 14,6 C 49 % 82 % 1007,3 hPa 0,0 l/m 1,7 km/h (1 Bft) W 0,17 h 0,6 UV-I 118 W/m 11,5 C 14,6 C 4,1 km/h (1 Bft)
23.05.2016 08:00 24,3 C 15,2 C 49 % 79 % 1007,4 hPa 0,0 l/m 1,1 km/h (0 Bft) W-SW 0,78 h 0,9 UV-I 174 W/m 11,7 C 15,2 C 2,7 km/h (1 Bft)
23.05.2016 09:00 24,3 C 16,4 C 49 % 75 % 1007,0 hPa 0,0 l/m 1,6 km/h (1 Bft) W 1,00 h 2,0 UV-I 371 W/m 11,9 C 16,4 C 3,6 km/h (1 Bft)
23.05.2016 10:00 24,0 C 17,6 C 48 % 71 % 1006,8 hPa 0,0 l/m 1,8 km/h (1 Bft) W 1,00 h 2,2 UV-I 345 W/m 12,2 C 17,5 C 5,0 km/h (1 Bft)
23.05.2016 11:00 23,7 C 17,4 C 49 % 72 % 1006,9 hPa 0,0 l/m 3,0 km/h (1 Bft) W-SW 1,00 h 2,4 UV-I 322 W/m 12,3 C 17,3 C 7,0 km/h (2 Bft)
23.05.2016 12:00 23,7 C 17,2 C 49 % 74 % 1006,9 hPa 0,0 l/m 2,1 km/h (1 Bft) W 0,50 h 1,6 UV-I 190 W/m 12,5 C 17,2 C 5,0 km/h (1 Bft)
23.05.2016 13:00 23,7 C 17,0 C 49 % 74 % 1006,9 hPa 0,0 l/m 2,8 km/h (1 Bft) W-NW 0,63 h 1,3 UV-I 152 W/m 12,4 C 16,9 C 7,0 km/h (2 Bft)
23.05.2016 14:00 23,9 C 16,2 C 49 % 76 % 1007,0 hPa 0,0 l/m 4,5 km/h (1 Bft) NW 0,00 h 0,7 UV-I 78 W/m 11,9 C 15,9 C 9,8 km/h (2 Bft)
23.05.2016 15:00 24,1 C 15,4 C 49 % 79 % 1007,0 hPa 0,0 l/m 4,9 km/h (1 Bft) NW 0,00 h 0,5 UV-I 54 W/m 11,7 C 14,9 C 10,8 km/h (2 Bft)
23.05.2016 16:00 24,1 C 14,1 C 49 % 88 % 1007,1 hPa 1,6 l/m 1,6 km/h (1 Bft) W-NW 0,00 h 0,6 UV-I 47 W/m 12,2 C 14,1 C 4,4 km/h (1 Bft)
23.05.2016 17:00 24,2 C 13,1 C 50 % 93 % 1007,4 hPa 6,2 l/m 0,8 km/h (0 Bft) W-NW 0,00 h 0,0 UV-I 22 W/m 12,1 C 13,1 C 2,3 km/h (1 Bft)
23.05.2016 18:00 24,5 C 12,6 C 50 % 95 % 1007,7 hPa 2,0 l/m 1,4 km/h (1 Bft) W 0,00 h 0,0 UV-I 26 W/m 11,8 C 12,6 C 3,4 km/h (1 Bft)
23.05.2016 19:00 24,4 C 12,5 C 51 % 95 % 1007,6 hPa 0,2 l/m 0,2 km/h (0 Bft) W-NW 0,00 h 0,0 UV-I 11 W/m 11,7 C 12,5 C 0,5 km/h (0 Bft)
23.05.2016 20:00 24,2 C 12,4 C 51 % 95 % 1007,8 hPa 0,0 l/m 0,5 km/h (0 Bft) W-NW 0,00 h 0,0 UV-I 5 W/m 11,6 C 12,4 C 1,6 km/h (1 Bft)
23.05.2016 21:00 24,2 C 12,3 C 51 % 95 % 1008,3 hPa 4,6 l/m 0,4 km/h (0 Bft) NW 0,00 h 0,0 UV-I 0 W/m 11,5 C 12,3 C 1,6 km/h (1 Bft)
23.05.2016 22:00 24,2 C 12,2 C 51 % 95 % 1008,3 hPa 1,0 l/m 0,4 km/h (0 Bft) W-NW 0,00 h 0,0 UV-I 0 W/m 11,4 C 12,2 C 1,5 km/h (1 Bft)
23.05.2016 23:00 24,2 C 11,9 C 52 % 96 % 1008,5 hPa 0,0 l/m 0,2 km/h (0 Bft) W-SW 0,00 h 0,0 UV-I 0 W/m 11,3 C 11,9 C 0,7 km/h (0 Bft)
24.05.2016 00:00 24,0 C 12,0 C 52 % 96 % 1008,4 hPa 0,6 l/m 0,9 km/h (0 Bft) NW 0,00 h 0,0 UV-I 0 W/m 11,4 C 12,0 C 3,5 km/h (1 Bft)
24.05.2016 01:00 23,9 C 11,8 C 52 % 96 % 1007,9 hPa 0,0 l/m 1,5 km/h (1 Bft) NW 0,00 h 0,0 UV-I 0 W/m 11,2 C 11,7 C 3,4 km/h (1 Bft)
24.05.2016 02:00 23,8 C 11,8 C 52 % 96 % 1008,2 hPa 0,0 l/m 0,0 km/h (0 Bft) N 0,00 h 0,0 UV-I 0 W/m 11,2 C 11,8 C 0,0 km/h (0 Bft)
24.05.2016 03:00 23,8 C 11,8 C 52 % 96 % 1008,0 hPa 0,0 l/m 0,9 km/h (0 Bft) NW 0,00 h 0,0 UV-I 0 W/m 11,1 C 11,7 C 2,9 km/h (1 Bft)
24.05.2016 04:00 23,8 C 11,6 C 53 % 96 % 1007,8 hPa 0,0 l/m 0,8 km/h (0 Bft) NW 0,00 h 0,0 UV-I 0 W/m 11,0 C 11,6 C 2,2 km/h (1 Bft)
24.05.2016 05:00 23,8 C 11,4 C 53 % 96 % 1008,0 hPa 0,4 l/m 0,2 km/h (0 Bft) NW 0,00 h 0,0 UV-I 5 W/m 10,8 C 11,4 C 0,8 km/h (0 Bft)
24.05.2016 06:00 23,8 C 11,4 C 53 % 97 % 1008,1 hPa 0,0 l/m 0,0 km/h (0 Bft) N 0,00 h 0,0 UV-I 9 W/m 10,9 C 11,4 C 0,2 km/h (0 Bft)
24.05.2016 07:00 23,9 C 11,3 C 53 % 97 % 1008,2 hPa 0,4 l/m 0,9 km/h (0 Bft) W 0,00 h 0,0 UV-I 23 W/m 10,8 C 11,3 C 2,7 km/h (1 Bft)
24.05.2016 08:00 24,0 C 11,3 C 53 % 97 % 1008,6 hPa 0,0 l/m 0,1 km/h (0 Bft) W-SW 0,00 h 0,0 UV-I 27 W/m 10,9 C 11,3 C 0,3 km/h (0 Bft)
24.05.2016 09:00 24,2 C 11,9 C 52 % 97 % 1008,7 hPa 0,0 l/m 0,1 km/h (0 Bft) W 0,12 h 0,7 UV-I 90 W/m 11,4 C 11,9 C 0,3 km/h (0 Bft)
24.05.2016 10:00 24,2 C 13,1 C 53 % 96 % 1008,8 hPa 0,0 l/m 0,4 km/h (0 Bft) NW 0,03 h 1,0 UV-I 118 W/m 12,5 C 13,1 C 1,1 km/h (0 Bft)
24.05.2016 11:00 24,2 C 14,2 C 53 % 93 % 1009,1 hPa 0,0 l/m 4,1 km/h (1 Bft) N 0,65 h 1,7 UV-I 212 W/m 13,1 C 14,0 C 7,9 km/h (2 Bft)
24.05.2016 12:00 24,2 C 14,8 C 53 % 91 % 1009,4 hPa 0,0 l/m 5,3 km/h (1 Bft) NW 0,83 h 2,0 UV-I 227 W/m 13,3 C 14,4 C 9,6 km/h (2 Bft)
24.05.2016 13:00 24,2 C 14,3 C 53 % 91 % 1009,9 hPa 0,0 l/m 3,3 km/h (1 Bft) NW 0,52 h 1,4 UV-I 160 W/m 12,8 C 14,1 C 7,6 km/h (2 Bft)
24.05.2016 14:00 24,3 C 14,8 C 52 % 89 % 1009,9 hPa 0,0 l/m 5,2 km/h (1 Bft) NW 0,72 h 1,7 UV-I 210 W/m 13,0 C 14,4 C 11,3 km/h (2 Bft)
24.05.2016 15:00 24,3 C 14,4 C 53 % 89 % 1010,1 hPa 0,0 l/m 4,8 km/h (1 Bft) NW 0,92 h 1,4 UV-I 192 W/m 12,7 C 14,1 C 10,7 km/h (2 Bft)
24.05.2016 16:00 24,3 C 14,2 C 53 % 88 % 1010,3 hPa 0,0 l/m 6,4 km/h (2 Bft) N-NW 0,43 h 1,1 UV-I 161 W/m 12,3 C 13,4 C 12,8 km/h (3 Bft)
24.05.2016 17:00 24,2 C 14,0 C 52 % 88 % 1010,7 hPa 0,0 l/m 8,1 km/h (2 Bft) NW 0,43 h 0,9 UV-I 144 W/m 12,0 C 12,6 C 14,7 km/h (3 Bft)
24.05.2016 18:00 24,2 C 13,4 C 52 % 89 % 1011,0 hPa 0,0 l/m 3,5 km/h (1 Bft) NW 0,00 h 0,6 UV-I 63 W/m 11,6 C 13,0 C 7,4 km/h (2 Bft)
24.05.2016 19:00 24,3 C 12,6 C 53 % 90 % 1011,2 hPa 0,0 l/m 2,9 km/h (1 Bft) NW 0,00 h 0,0 UV-I 23 W/m 11,1 C 12,5 C 7,9 km/h (2 Bft)
24.05.2016 20:00 24,2 C 12,0 C 53 % 92 % 1011,6 hPa 0,0 l/m 2,6 km/h (1 Bft) NW 0,00 h 0,0 UV-I 7 W/m 10,7 C 12,0 C 7,3 km/h (2 Bft)
24.05.2016 21:00 24,2 C 11,5 C 53 % 93 % 1012,3 hPa 0,0 l/m 2,3 km/h (1 Bft) NW 0,00 h 0,0 UV-I 0 W/m 10,3 C 11,5 C 6,8 km/h (2 Bft)
24.05.2016 22:00 24,3 C 11,3 C 53 % 93 % 1012,8 hPa 0,0 l/m 1,4 km/h (1 Bft) NW 0,00 h 0,0 UV-I 0 W/m 10,2 C 11,3 C 5,5 km/h (1 Bft)
24.05.2016 23:00 24,2 C 11,0 C 53 % 94 % 1012,8 hPa 0,0 l/m 2,6 km/h (1 Bft) NW 0,00 h 0,0 UV-I 0 W/m 10,1 C 11,0 C 6,7 km/h (2 Bft)
25.05.2016 00:00 24,0 C 10,8 C 53 % 93 % 1013,0 hPa 0,0 l/m 1,2 km/h (1 Bft) NW 0,00 h 0,0 UV-I 0 W/m 9,7 C 10,8 C 3,9 km/h (1 Bft)
25.05.2016 01:00 23,9 C 10,6 C 53 % 94 % 1013,1 hPa 0,0 l/m 1,3 km/h (1 Bft) NW 0,00 h 0,0 UV-I 0 W/m 9,6 C 10,5 C 3,0 km/h (1 Bft)
25.05.2016 02:00 23,8 C 10,2 C 53 % 95 % 1013,2 hPa 0,0 l/m 0,7 km/h (0 Bft) NW 0,00 h 0,0 UV-I 0 W/m 9,5 C 10,2 C 2,6 km/h (1 Bft)
25.05.2016 03:00 23,8 C 10,1 C 54 % 95 % 1013,0 hPa 0,0 l/m 2,4 km/h (1 Bft) NW 0,00 h 0,0 UV-I 0 W/m 9,3 C 10,1 C 6,2 km/h (2 Bft)
25.05.2016 04:00 23,8 C 10,0 C 54 % 94 % 1013,1 hPa 0,0 l/m 0,5 km/h (0 Bft) N 0,00 h 0,0 UV-I 0 W/m 9,1 C 10,0 C 1,2 km/h (1 Bft)
25.05.2016 05:00 23,7 C 10,1 C 54 % 95 % 1013,2 hPa 0,0 l/m 0,5 km/h (0 Bft) NW 0,00 h 0,0 UV-I 9 W/m 9,3 C 10,1 C 1,6 km/h (1 Bft)
25.05.2016 06:00 23,7 C 10,3 C 54 % 94 % 1013,5 hPa 0,0 l/m 0,2 km/h (0 Bft) NW 0,00 h 0,0 UV-I 18 W/m 9,4 C 10,3 C 0,7 km/h (0 Bft)
25.05.2016 07:00 23,8 C 10,7 C 54 % 93 % 1013,9 hPa 0,0 l/m 0,7 km/h (0 Bft) N 0,00 h 0,5 UV-I 65 W/m 9,7 C 10,7 C 1,7 km/h (1 Bft)
25.05.2016 08:00 24,0 C 11,2 C 54 % 92 % 1014,1 hPa 0,0 l/m 0,0 km/h (0 Bft) N 0,37 h 0,8 UV-I 128 W/m 9,9 C 11,2 C 0,1 km/h (0 Bft)
25.05.2016 09:00 24,1 C 12,7 C 53 % 86 % 1013,9 hPa 0,0 l/m 0,3 km/h (0 Bft) W 1,00 h 1,5 UV-I 246 W/m 10,5 C 12,7 C 0,5 km/h (0 Bft)
25.05.2016 10:00 23,9 C 13,8 C 53 % 83 % 1013,9 hPa 0,0 l/m 1,3 km/h (1 Bft) NW 0,98 h 2,2 UV-I 318 W/m 10,9 C 13,7 C 3,2 km/h (1 Bft)
25.05.2016 11:00 23,8 C 14,2 C 52 % 81 % 1014,0 hPa 0,0 l/m 2,1 km/h (1 Bft) W-SW 1,02 h 2,4 UV-I 302 W/m 10,9 C 14,2 C 4,5 km/h (1 Bft)
25.05.2016 12:00 23,7 C 14,7 C 51 % 79 % 1014,1 hPa 0,0 l/m 2,2 km/h (1 Bft) W-SW 1,00 h 2,5 UV-I 286 W/m 11,1 C 14,6 C 4,7 km/h (1 Bft)
25.05.2016 13:00 23,9 C 14,8 C 52 % 81 % 1014,0 hPa 0,0 l/m 4,6 km/h (1 Bft) W-SW 1,00 h 2,5 UV-I 287 W/m 11,6 C 14,6 C 8,3 km/h (2 Bft)
25.05.2016 14:00 23,6 C 14,5 C 50 % 82 % 1014,2 hPa 0,0 l/m 3,8 km/h (1 Bft) W-SW 1,00 h 2,6 UV-I 333 W/m 11,4 C 14,4 C 8,1 km/h (2 Bft)
25.05.2016 15:00 23,5 C 15,3 C 51 % 80 % 1014,3 hPa 0,0 l/m 2,6 km/h (1 Bft) W 1,00 h 2,0 UV-I 274 W/m 11,8 C 15,3 C 6,5 km/h (2 Bft)
25.05.2016 16:00 23,8 C 16,3 C 51 % 75 % 1014,1 hPa 0,0 l/m 0,3 km/h (0 Bft) W-SW 1,00 h 2,4 UV-I 385 W/m 12,0 C 16,3 C 1,5 km/h (1 Bft)
25.05.2016 17:00 23,9 C 16,4 C 51 % 75 % 1013,7 hPa 0,0 l/m 0,3 km/h (0 Bft) N-NW 0,93 h 1,2 UV-I 203 W/m 12,0 C 16,4 C 1,2 km/h (1 Bft)
25.05.2016 18:00 24,0 C 16,1 C 52 % 76 % 1013,7 hPa 0,0 l/m 1,0 km/h (0 Bft) S 0,05 h 0,6 UV-I 99 W/m 11,9 C 16,1 C 2,7 km/h (1 Bft)
25.05.2016 19:00 24,1 C 15,5 C 52 % 79 % 1013,7 hPa 0,0 l/m 2,3 km/h (1 Bft) W 0,00 h 0,5 UV-I 50 W/m 11,8 C 15,5 C 5,8 km/h (2 Bft)
25.05.2016 20:00 24,0 C 14,5 C 53 % 81 % 1014,1 hPa 0,0 l/m 2,3 km/h (1 Bft) W 0,00 h 0,0 UV-I 12 W/m 11,3 C 14,4 C 5,7 km/h (1 Bft)
25.05.2016 21:00 24,0 C 13,8 C 53 % 84 % 1014,6 hPa 0,0 l/m 0,1 km/h (0 Bft) W-SW 0,00 h 0,0 UV-I 0 W/m 11,1 C 13,8 C 0,3 km/h (0 Bft)
25.05.2016 22:00 24,1 C 13,4 C 53 % 86 % 1015,0 hPa 0,0 l/m 0,0 km/h (0 Bft) N 0,00 h 0,0 UV-I 0 W/m 11,1 C 13,4 C 0,0 km/h (0 Bft)
25.05.2016 23:00 24,2 C 13,2 C 53 % 87 % 1015,2 hPa 0,0 l/m 0,0 km/h (0 Bft) N 0,00 h 0,0 UV-I 0 W/m 11,2 C 13,2 C 0,0 km/h (0 Bft)
26.05.2016 00:00 24,0 C 13,0 C 53 % 88 % 1015,5 hPa 0,0 l/m 0,0 km/h (0 Bft) N 0,00 h 0,0 UV-I 0 W/m 11,1 C 13,0 C 0,1 km/h (0 Bft)
26.05.2016 01:00 23,8 C 12,6 C 53 % 91 % 1015,3 hPa 0,0 l/m 0,1 km/h (0 Bft) NW 0,00 h 0,0 UV-I 0 W/m 11,1 C 12,6 C 0,4 km/h (0 Bft)
26.05.2016 02:00 23,8 C 11,6 C 53 % 93 % 1015,1 hPa 0,0 l/m 0,0 km/h (0 Bft) N 0,00 h 0,0 UV-I 0 W/m 10,5 C 11,6 C 0,0 km/h (0 Bft)
26.05.2016 03:00 23,7 C 10,4 C 54 % 95 % 1015,1 hPa 0,0 l/m 0,0 km/h (0 Bft) N 0,00 h 0,0 UV-I 0 W/m 9,6 C 10,4 C 0,0 km/h (0 Bft)
26.05.2016 04:00 23,8 C 9,6 C 54 % 96 % 1015,2 hPa 0,0 l/m 0,0 km/h (0 Bft) N 0,00 h 0,0 UV-I 0 W/m 8,9 C 9,6 C 0,0 km/h (0 Bft)
26.05.2016 05:00 23,8 C 9,6 C 55 % 97 % 1015,5 hPa 0,0 l/m 0,0 km/h (0 Bft) N 0,00 h 0,0 UV-I 12 W/m 9,2 C 9,6 C 0,0 km/h (0 Bft)
26.05.2016 06:00 23,9 C 10,2 C 55 % 97 % 1015,7 hPa 0,0 l/m 0,0 km/h (0 Bft) N 0,00 h 0,0 UV-I 29 W/m 9,8 C 10,2 C 0,0 km/h (0 Bft)
26.05.2016 07:00 24,0 C 10,4 C 54 % 97 % 1016,1 hPa 0,0 l/m 0,0 km/h (0 Bft) N 0,00 h 0,6 UV-I 75 W/m 10,0 C 10,4 C 0,1 km/h (0 Bft)
26.05.2016 08:00 24,2 C 11,5 C 53 % 96 % 1016,4 hPa 0,0 l/m 0,1 km/h (0 Bft) W 0,73 h 1,2 UV-I 251 W/m 10,9 C 11,5 C 0,2 km/h (0 Bft)
26.05.2016 09:00 24,2 C 14,6 C 53 % 83 % 1016,4 hPa 0,0 l/m 0,5 km/h (0 Bft) S 1,00 h 2,6 UV-I 562 W/m 11,7 C 14,6 C 1,3 km/h (1 Bft)
26.05.2016 10:00 24,1 C 16,9 C 53 % 70 % 1016,2 hPa 0,0 l/m 1,7 km/h (1 Bft) W 1,00 h 3,9 UV-I 723 W/m 11,4 C 16,9 C 3,9 km/h (1 Bft)
26.05.2016 11:00 24,2 C 18,9 C 53 % 53 % 1016,0 hPa 0,0 l/m 5,0 km/h (1 Bft) W-SW 1,00 h 5,0 UV-I 819 W/m 9,1 C 18,5 C 10,1 km/h (2 Bft)
26.05.2016 12:00 24,0 C 20,0 C 49 % 49 % 1015,8 hPa 0,0 l/m 5,1 km/h (1 Bft) SW 1,00 h 5,8 UV-I 855 W/m 8,9 C 19,8 C 10,5 km/h (2 Bft)
26.05.2016 13:00 24,3 C 20,5 C 49 % 48 % 1015,8 hPa 0,0 l/m 5,7 km/h (1 Bft) W-SW 1,00 h 5,9 UV-I 837 W/m 9,2 C 20,2 C 11,2 km/h (2 Bft)
26.05.2016 14:00 24,6 C 21,2 C 49 % 48 % 1015,5 hPa 0,0 l/m 3,7 km/h (1 Bft) W-SW 1,00 h 5,2 UV-I 845 W/m 9,8 C 21,1 C 8,5 km/h (2 Bft)
26.05.2016 15:00 24,5 C 22,0 C 49 % 47 % 1015,3 hPa 0,0 l/m 3,6 km/h (1 Bft) W-SW 1,00 h 4,4 UV-I 812 W/m 10,2 C 21,8 C 7,9 km/h (2 Bft)
26.05.2016 16:00 24,4 C 21,7 C 49 % 47 % 1015,0 hPa 0,0 l/m 3,2 km/h (1 Bft) SW 0,87 h 2,7 UV-I 493 W/m 9,9 C 21,6 C 7,3 km/h (2 Bft)
26.05.2016 17:00 24,4 C 21,8 C 48 % 46 % 1014,6 hPa 0,0 l/m 2,6 km/h (1 Bft) W 0,98 h 1,9 UV-I 405 W/m 9,7 C 21,7 C 5,8 km/h (2 Bft)
26.05.2016 18:00 24,3 C 21,0 C 47 % 48 % 1014,5 hPa 0,0 l/m 2,6 km/h (1 Bft) W-SW 0,00 h 0,8 UV-I 92 W/m 9,4 C 21,0 C 6,0 km/h (2 Bft)
26.05.2016 19:00 24,6 C 20,3 C 48 % 50 % 1014,3 hPa 0,0 l/m 3,4 km/h (1 Bft) N 0,00 h 0,5 UV-I 63 W/m 9,6 C 20,2 C 6,6 km/h (2 Bft)
26.05.2016 20:00 24,7 C 18,6 C 49 % 58 % 1014,6 hPa 0,0 l/m 1,7 km/h (1 Bft) N 0,00 h 0,0 UV-I 22 W/m 10,0 C 18,6 C 4,1 km/h (1 Bft)
26.05.2016 21:00 24,8 C 16,8 C 50 % 64 % 1014,9 hPa 0,0 l/m 0,2 km/h (0 Bft) N 0,00 h 0,0 UV-I 0 W/m 9,9 C 16,8 C 1,2 km/h (1 Bft)
26.05.2016 22:00 24,7 C 14,7 C 49 % 76 % 1015,2 hPa 0,0 l/m 0,0 km/h (0 Bft) N 0,00 h 0,0 UV-I 0 W/m 10,4 C 14,7 C 0,0 km/h (0 Bft)
26.05.2016 23:00 24,3 C 13,0 C 50 % 83 % 1015,4 hPa 0,0 l/m 0,0 km/h (0 Bft) O-NO 0,00 h 0,0 UV-I 0 W/m 10,3 C 13,0 C 0,1 km/h (0 Bft)
27.05.2016 00:00 24,1 C 12,0 C 51 % 87 % 1015,2 hPa 0,0 l/m 0,0 km/h (0 Bft) N 0,00 h 0,0 UV-I 0 W/m 9,9 C 12,0 C 0,1 km/h (0 Bft)
27.05.2016 01:00 24,1 C 11,9 C 51 % 87 % 1015,1 hPa 0,0 l/m 0,0 km/h (0 Bft) N 0,00 h 0,0 UV-I 0 W/m 9,9 C 11,9 C 0,0 km/h (0 Bft)
27.05.2016 02:00 24,0 C 12,1 C 52 % 88 % 1014,7 hPa 0,0 l/m 0,2 km/h (0 Bft) N 0,00 h 0,0 UV-I 0 W/m 10,2 C 12,1 C 0,7 km/h (0 Bft)
27.05.2016 03:00 23,9 C 11,7 C 52 % 89 % 1014,6 hPa 0,0 l/m 0,4 km/h (0 Bft) N 0,00 h 0,0 UV-I 0 W/m 10,0 C 11,7 C 1,9 km/h (1 Bft)
27.05.2016 04:00 23,9 C 11,8 C 52 % 89 % 1014,5 hPa 0,0 l/m 0,5 km/h (0 Bft) N-NO 0,00 h 0,0 UV-I 0 W/m 10,1 C 11,8 C 2,1 km/h (1 Bft)
27.05.2016 05:00 23,9 C 11,3 C 52 % 90 % 1014,6 hPa 0,0 l/m 0,0 km/h (0 Bft) N 0,00 h 0,0 UV-I 10 W/m 9,7 C 11,3 C 0,0 km/h (0 Bft)
27.05.2016 06:00 23,9 C 11,3 C 53 % 91 % 1014,8 hPa 0,0 l/m 0,1 km/h (0 Bft) NW 0,00 h 0,0 UV-I 58 W/m 9,8 C 11,3 C 0,3 km/h (0 Bft)
27.05.2016 07:00 24,2 C 13,6 C 53 % 88 % 1014,8 hPa 0,0 l/m 0,2 km/h (0 Bft) N-NW 0,03 h 0,5 UV-I 105 W/m 11,5 C 13,6 C 0,3 km/h (0 Bft)
27.05.2016 08:00 24,3 C 15,3 C 53 % 83 % 1015,0 hPa 0,0 l/m 0,5 km/h (0 Bft) NW 0,68 h 0,9 UV-I 171 W/m 12,5 C 15,3 C 1,4 km/h (1 Bft)
27.05.2016 09:00 24,4 C 15,2 C 52 % 84 % 1015,6 hPa 0,0 l/m 2,1 km/h (1 Bft) W-SW 0,00 h 0,6 UV-I 64 W/m 12,4 C 15,2 C 3,7 km/h (1 Bft)
27.05.2016 10:00 24,6 C 13,9 C 52 % 92 % 1015,7 hPa 2,0 l/m 0,2 km/h (0 Bft) O 0,12 h 0,9 UV-I 72 W/m 12,7 C 13,9 C 0,8 km/h (0 Bft)
27.05.2016 11:00 24,3 C 15,4 C 53 % 93 % 1015,0 hPa 0,0 l/m 0,5 km/h (0 Bft) O-NO 0,92 h 1,9 UV-I 232 W/m 14,2 C 15,4 C 1,5 km/h (1 Bft)
27.05.2016 12:00 24,2 C 16,6 C 54 % 89 % 1014,4 hPa 0,0 l/m 0,2 km/h (0 Bft) N-NO 0,70 h 1,7 UV-I 198 W/m 14,9 C 16,6 C 0,6 km/h (0 Bft)
27.05.2016 13:00 24,3 C 17,8 C 55 % 82 % 1014,6 hPa 0,0 l/m 2,0 km/h (1 Bft) O-NO 1,00 h 2,8 UV-I 333 W/m 14,7 C 17,8 C 5,2 km/h (1 Bft)
27.05.2016 14:00 24,7 C 19,7 C 55 % 74 % 1014,4 hPa 0,0 l/m 2,8 km/h (1 Bft) O-NO 1,00 h 4,4 UV-I 596 W/m 15,0 C 19,6 C 6,8 km/h (2 Bft)
27.05.2016 15:00 24,7 C 21,2 C 54 % 67 % 1014,1 hPa 0,0 l/m 3,9 km/h (1 Bft) O-NO 1,00 h 3,9 UV-I 566 W/m 14,8 C 21,0 C 8,6 km/h (2 Bft)
27.05.2016 16:00 24,6 C 22,4 C 55 % 64 % 1013,7 hPa 0,0 l/m 2,8 km/h (1 Bft) O-NO 1,00 h 3,2 UV-I 578 W/m 15,3 C 22,4 C 7,1 km/h (2 Bft)
27.05.2016 17:00 24,6 C 22,5 C 54 % 61 % 1013,3 hPa 0,0 l/m 2,8 km/h (1 Bft) N-NO 0,82 h 1,8 UV-I 319 W/m 14,7 C 22,5 C 6,3 km/h (2 Bft)
27.05.2016 18:00 24,4 C 21,3 C 54 % 65 % 1013,2 hPa 0,0 l/m 5,2 km/h (1 Bft) N 0,05 h 0,7 UV-I 118 W/m 14,4 C 21,1 C 9,2 km/h (2 Bft)
27.05.2016 19:00 24,3 C 20,7 C 54 % 67 % 1013,3 hPa 0,0 l/m 5,8 km/h (2 Bft) N-NO 0,00 h 0,5 UV-I 102 W/m 14,3 C 20,5 C 9,5 km/h (2 Bft)
27.05.2016 20:00 24,2 C 19,1 C 54 % 69 % 1013,3 hPa 0,0 l/m 5,7 km/h (1 Bft) N 0,00 h 0,0 UV-I 17 W/m 13,2 C 18,8 C 10,5 km/h (2 Bft)
27.05.2016 21:00 24,6 C 17,3 C 55 % 77 % 1013,8 hPa 0,0 l/m 1,3 km/h (1 Bft) N 0,00 h 0,0 UV-I 0 W/m 13,3 C 17,3 C 3,0 km/h (1 Bft)
27.05.2016 22:00 24,6 C 16,0 C 55 % 84 % 1014,0 hPa 0,0 l/m 2,4 km/h (1 Bft) N 0,00 h 0,0 UV-I 0 W/m 13,3 C 16,0 C 4,9 km/h (1 Bft)
27.05.2016 23:00 24,4 C 15,1 C 56 % 88 % 1014,1 hPa 0,0 l/m 1,7 km/h (1 Bft) N 0,00 h 0,0 UV-I 0 W/m 13,1 C 15,1 C 4,3 km/h (1 Bft)
28.05.2016 00:00 24,3 C 14,4 C 56 % 90 % 1014,0 hPa 0,0 l/m 1,1 km/h (1 Bft) N 0,00 h 0,0 UV-I 0 W/m 12,8 C 14,3 C 2,9 km/h (1 Bft)
28.05.2016 01:00 24,2 C 13,0 C 57 % 94 % 1013,6 hPa 0,0 l/m 0,0 km/h (0 Bft) N 0,00 h 0,0 UV-I 0 W/m 11,9 C 13,0 C 0,0 km/h (0 Bft)
28.05.2016 02:00 24,2 C 13,0 C 57 % 94 % 1013,5 hPa 0,0 l/m 0,2 km/h (0 Bft) NW 0,00 h 0,0 UV-I 0 W/m 12,0 C 13,0 C 0,8 km/h (0 Bft)
28.05.2016 03:00 24,1 C 12,5 C 57 % 94 % 1013,2 hPa 0,0 l/m 0,3 km/h (0 Bft) N-NW 0,00 h 0,0 UV-I 0 W/m 11,6 C 12,5 C 0,7 km/h (0 Bft)
28.05.2016 04:00 24,1 C 12,1 C 58 % 95 % 1012,9 hPa 0,0 l/m 0,0 km/h (0 Bft) N 0,00 h 0,0 UV-I 0 W/m 11,4 C 12,1 C 0,1 km/h (0 Bft)
28.05.2016 05:00 24,0 C 11,7 C 58 % 95 % 1013,3 hPa 0,0 l/m 0,3 km/h (0 Bft) N 0,00 h 0,0 UV-I 17 W/m 11,0 C 11,7 C 0,9 km/h (0 Bft)
28.05.2016 06:00 24,0 C 12,1 C 58 % 96 % 1013,2 hPa 0,0 l/m 0,0 km/h (0 Bft) N 0,00 h 0,3 UV-I 59 W/m 11,4 C 12,1 C 0,0 km/h (0 Bft)
28.05.2016 07:00 24,0 C 14,4 C 58 % 93 % 1013,0 hPa 0,0 l/m 0,2 km/h (0 Bft) NW 0,65 h 0,7 UV-I 158 W/m 13,3 C 14,4 C 0,5 km/h (0 Bft)
28.05.2016 08:00 24,2 C 16,6 C 58 % 86 % 1013,0 hPa 0,0 l/m 0,5 km/h (0 Bft) NW 1,00 h 1,3 UV-I 281 W/m 14,4 C 16,6 C 1,3 km/h (1 Bft)
28.05.2016 09:00 24,4 C 18,1 C 58 % 83 % 1012,8 hPa 0,0 l/m 0,7 km/h (0 Bft) W-NW 1,00 h 2,0 UV-I 347 W/m 15,1 C 18,1 C 1,6 km/h (1 Bft)
28.05.2016 10:00 24,6 C 20,3 C 58 % 77 % 1012,6 hPa 0,0 l/m 1,8 km/h (1 Bft) SO 1,00 h 2,7 UV-I 449 W/m 16,0 C 20,3 C 3,8 km/h (1 Bft)
28.05.2016 11:00 24,7 C 20,9 C 57 % 74 % 1012,4 hPa 0,0 l/m 3,1 km/h (1 Bft) S-SO 1,00 h 3,7 UV-I 451 W/m 16,0 C 20,8 C 5,8 km/h (2 Bft)
28.05.2016 12:00 24,7 C 22,7 C 57 % 67 % 1011,9 hPa 0,0 l/m 1,4 km/h (1 Bft) SO 1,00 h 4,7 UV-I 674 W/m 16,2 C 22,7 C 3,3 km/h (1 Bft)
28.05.2016 13:00 24,8 C 23,6 C 57 % 61 % 1011,4 hPa 0,0 l/m 0,9 km/h (0 Bft) SO 1,00 h 4,9 UV-I 668 W/m 15,7 C 23,6 C 2,8 km/h (1 Bft)
28.05.2016 14:00 24,8 C 23,5 C 56 % 61 % 1010,9 hPa 0,0 l/m 5,5 km/h (1 Bft) N 1,00 h 3,0 UV-I 449 W/m 15,5 C 23,3 C 9,5 km/h (2 Bft)
28.05.2016 15:00 24,6 C 22,5 C 56 % 66 % 1010,7 hPa 0,0 l/m 4,8 km/h (1 Bft) N 0,38 h 1,2 UV-I 168 W/m 15,7 C 22,3 C 9,5 km/h (2 Bft)
28.05.2016 16:00 24,4 C 21,3 C 56 % 68 % 1010,5 hPa 0,0 l/m 2,5 km/h (1 Bft) N-NO 0,65 h 1,6 UV-I 286 W/m 15,2 C 21,3 C 7,2 km/h (2 Bft)
28.05.2016 17:00 24,3 C 19,9 C 57 % 75 % 1010,8 hPa 0,0 l/m 2,3 km/h (1 Bft) O-NO 0,15 h 1,0 UV-I 107 W/m 15,3 C 19,8 C 6,3 km/h (2 Bft)
28.05.2016 18:00 24,0 C 18,5 C 57 % 78 % 1010,9 hPa 0,0 l/m 3,8 km/h (1 Bft) O-SO 0,00 h 0,7 UV-I 94 W/m 14,5 C 18,3 C 10,3 km/h (2 Bft)
28.05.2016 19:00 24,1 C 18,4 C 57 % 75 % 1010,1 hPa 0,0 l/m 0,7 km/h (0 Bft) O-SO 0,00 h 0,5 UV-I 75 W/m 13,9 C 18,4 C 2,5 km/h (1 Bft)
28.05.2016 20:00 24,4 C 17,7 C 56 % 76 % 1009,7 hPa 0,0 l/m 0,3 km/h (0 Bft) O-NO 0,00 h 0,0 UV-I 17 W/m 13,3 C 17,7 C 1,4 km/h (1 Bft)
28.05.2016 21:00 24,7 C 16,8 C 56 % 80 % 1009,7 hPa 0,0 l/m 0,0 km/h (0 Bft) N 0,00 h 0,0 UV-I 0 W/m 13,3 C 16,8 C 0,1 km/h (0 Bft)
28.05.2016 22:00 24,6 C 16,6 C 56 % 80 % 1009,3 hPa 0,0 l/m 0,0 km/h (0 Bft) N 0,00 h 0,0 UV-I 0 W/m 13,1 C 16,6 C 0,0 km/h (0 Bft)
28.05.2016 23:00 24,4 C 16,7 C 56 % 83 % 1008,9 hPa 0,0 l/m 1,1 km/h (1 Bft) O-NO 0,00 h 0,0 UV-I 0 W/m 13,7 C 16,7 C 4,2 km/h (1 Bft)
29.05.2016 00:00 24,3 C 16,1 C 57 % 85 % 1008,4 hPa 0,0 l/m 0,5 km/h (0 Bft) O 0,00 h 0,0 UV-I 0 W/m 13,5 C 16,1 C 1,6 km/h (1 Bft)
29.05.2016 01:00 24,2 C 15,2 C 57 % 90 % 1007,9 hPa 0,0 l/m 1,3 km/h (1 Bft) O-NO 0,00 h 0,0 UV-I 0 W/m 13,5 C 15,2 C 3,4 km/h (1 Bft)
29.05.2016 02:00 24,3 C 14,7 C 57 % 91 % 1007,6 hPa 0,0 l/m 0,0 km/h (0 Bft) O 0,00 h 0,0 UV-I 0 W/m 13,3 C 14,7 C 0,1 km/h (0 Bft)
29.05.2016 03:00 24,3 C 14,5 C 58 % 92 % 1006,9 hPa 0,0 l/m 0,7 km/h (0 Bft) O-NO 0,00 h 0,0 UV-I 0 W/m 13,2 C 14,5 C 3,1 km/h (1 Bft)
29.05.2016 04:00 24,3 C 14,0 C 58 % 92 % 1007,0 hPa 0,0 l/m 0,3 km/h (0 Bft) O-NO 0,00 h 0,0 UV-I 0 W/m 12,7 C 14,0 C 1,0 km/h (0 Bft)
29.05.2016 05:00 24,3 C 13,1 C 58 % 94 % 1007,0 hPa 0,0 l/m 0,0 km/h (0 Bft) N 0,00 h 0,0 UV-I 19 W/m 12,1 C 13,1 C 0,0 km/h (0 Bft)
29.05.2016 06:00 24,3 C 13,4 C 58 % 94 % 1006,6 hPa 0,0 l/m 0,7 km/h (0 Bft) O 0,00 h 0,5 UV-I 36 W/m 12,5 C 13,4 C 2,1 km/h (1 Bft)
29.05.2016 07:00 24,4 C 16,2 C 57 % 90 % 1006,2 hPa 0,0 l/m 1,0 km/h (0 Bft) O-NO 0,60 h 0,8 UV-I 266 W/m 14,5 C 16,2 C 2,8 km/h (1 Bft)
29.05.2016 08:00 24,6 C 18,3 C 57 % 83 % 1006,4 hPa 0,0 l/m 0,2 km/h (0 Bft) O-SO 1,00 h 1,5 UV-I 491 W/m 15,4 C 18,3 C 1,0 km/h (0 Bft)
29.05.2016 09:00 24,5 C 18,9 C 58 % 83 % 1006,3 hPa 0,0 l/m 0,4 km/h (0 Bft) O-NO 0,85 h 1,4 UV-I 264 W/m 15,9 C 18,9 C 1,3 km/h (1 Bft)
29.05.2016 10:00 24,5 C 18,5 C 59 % 88 % 1005,9 hPa 0,0 l/m 0,0 km/h (0 Bft) N-NO 0,42 h 1,1 UV-I 162 W/m 16,3 C 18,5 C 0,3 km/h (0 Bft)
29.05.2016 11:00 24,6 C 20,5 C 59 % 82 % 1005,6 hPa 0,0 l/m 0,3 km/h (0 Bft) NO 1,00 h 3,9 UV-I 573 W/m 17,3 C 20,5 C 1,2 km/h (1 Bft)
29.05.2016 12:00 24,6 C 21,6 C 59 % 78 % 1005,2 hPa 0,0 l/m 3,3 km/h (1 Bft) O-SO 1,00 h 4,8 UV-I 665 W/m 17,5 C 21,5 C 8,6 km/h (2 Bft)
29.05.2016 13:00 24,6 C 20,2 C 59 % 81 % 1005,2 hPa 0,0 l/m 4,0 km/h (1 Bft) O 1,00 h 4,7 UV-I 658 W/m 16,8 C 20,1 C 11,2 km/h (2 Bft)
29.05.2016 14:00 24,6 C 21,3 C 59 % 77 % 1004,7 hPa 0,0 l/m 3,9 km/h (1 Bft) O 1,00 h 5,1 UV-I 710 W/m 17,0 C 21,2 C 11,5 km/h (2 Bft)
29.05.2016 15:00 24,8 C 23,0 C 59 % 67 % 1004,1 hPa 0,0 l/m 3,8 km/h (1 Bft) O-NO 1,00 h 4,2 UV-I 670 W/m 16,5 C 22,8 C 11,3 km/h (2 Bft)
29.05.2016 16:00 24,8 C 23,0 C 57 % 66 % 1003,5 hPa 0,0 l/m 4,8 km/h (1 Bft) O-NO 1,00 h 3,2 UV-I 555 W/m 16,4 C 22,7 C 13,9 km/h (3 Bft)
29.05.2016 17:00 24,8 C 22,7 C 57 % 67 % 1002,7 hPa 0,0 l/m 5,1 km/h (1 Bft) O-NO 0,85 h 1,9 UV-I 356 W/m 16,1 C 22,4 C 13,9 km/h (3 Bft)
29.05.2016 18:00 24,7 C 22,3 C 58 % 69 % 1002,6 hPa 0,0 l/m 4,5 km/h (1 Bft) O-NO 0,00 h 0,8 UV-I 100 W/m 16,3 C 22,0 C 10,3 km/h (2 Bft)
29.05.2016 19:00 24,8 C 21,3 C 59 % 73 % 1002,1 hPa 0,0 l/m 5,0 km/h (1 Bft) O-NO 0,00 h 0,5 UV-I 51 W/m 16,3 C 20,9 C 11,6 km/h (2 Bft)
29.05.2016 20:00 24,6 C 20,4 C 60 % 79 % 1001,6 hPa 0,0 l/m 1,0 km/h (0 Bft) N-NO 0,00 h 0,0 UV-I 15 W/m 16,7 C 20,4 C 4,1 km/h (1 Bft)
29.05.2016 21:00 24,5 C 19,6 C 60 % 83 % 1001,2 hPa 0,0 l/m 1,3 km/h (1 Bft) N-NO 0,00 h 0,0 UV-I 0 W/m 16,7 C 19,6 C 4,9 km/h (1 Bft)
29.05.2016 22:00 24,5 C 19,8 C 61 % 83 % 1001,0 hPa 0,0 l/m 2,1 km/h (1 Bft) O-NO 0,00 h 0,0 UV-I 0 W/m 16,8 C 19,8 C 7,0 km/h (2 Bft)
29.05.2016 23:00 24,4 C 16,9 C 61 % 83 % 1002,8 hPa 6,8 l/m 5,0 km/h (1 Bft) S-SO 0,00 h 0,0 UV-I 0 W/m 13,9 C 16,2 C 10,2 km/h (2 Bft)
Min-Datum _ 25.05.16 26.05.16 26.05.16 26.05.16 29.05.16 - 23.05.16 - - - - 26.05.16 24.05.16 23.05.16
_ Min-Zeit 14:56 04:56 17:58 17:26 21:08 - 00:00 - - - - 12:04 01:15 00:07
Minimum _ 23,2 C 9,4 C 45 % 42 % 1000,8 hPa - 0,0 km/h (0 Bft) - - - - 7,8 C 8,9 C 0,0 km/h (0 Bft)
Max-Datum _ 26.05.16 28.05.16 29.05.16 24.05.16 26.05.16 29.05.16 29.05.16 - 23.05.16 29.05.16 27.05.16 29.05.16 28.05.16 29.05.16
_ Max-Zeit 21:38 14:57 21:34 09:36 08:41 23:37 23:01 - 09:58 13:35 14:24 11:49 14:55 23:07
Maximum _ 24,9 C 25,1 C 61 % 98 % 1016,6 hPa 6,8 l/m 19,3 km/h
S-SO (3 Bft)
- 0,03 h 6,7 UV-I 1104 W/m 18,8 C 24,9 C 33,8 km/h
S-SO (5 Bft)
Durchschnitt _ 24,2 C 15,5 C 53 % 83 % 1011,1 hPa #25,8 l/m 1,7 km/h (1 Bft) NW #54:32 h 2,0 UV-I 241 W/m 12,2 C 15,4 C 4,1 km/h (1 Bft)